Regional Weather Roundup
Issued by NWS

Home | Current Version | Previous Version | Text Only | Print | Product List | Glossary On
Versions: 1 2 3 4 5 6 7 8 9 10 11 12 13 14 15 16 17 18 19 20 21 22 23 24 25 26 27 28 29 30 31 32 33 34 35 36 37 38 39 40 41 42 43 44 45 46 47 48 49 50
000
ASUS44 KJAN 191110
RWRMS

MISSISSIPPI HOURLY WEATHER ROUNDUP
NATIONAL WEATHER SERVICE JACKSON MS
600 AM CDT SAT AUG 19 2017

NOTE: "FAIR: INDICATES FEW OR NO CLOUDS BELOW 12,000 FEET WITH NO
SIGNIFICANT WEATHER AND/OR OBSTRUCTIONS TO VISIBILITY.

MSZ001>002-007>008-010>013-018>021-025>028-034>036-191200-
NORTHWEST MISSISSIPPI

CITY           SKY/WX    TMP DP  RH WIND       PRES   REMARKS
BATESVILLE     FAIR      71  69  95 CALM      29.96S FOG
CLARKSDALE       N/A     72  72 100 CALM      29.96R
CLEVELAND      FAIR      73  73 100 NE6       29.97R
GREENWOOD      CLOUDY    75  74  96 N5        29.97R
GREENVILLE     MOCLDY    75  70  84 SW7       29.96S
OXFORD         FAIR      72  70  94 CALM      29.99R
TUNICA           N/A     72  72 100 CALM      29.96S
WINONA         FAIR      74  74 100 NE3       29.98R FOG
$$

MSZ003>006-009-014>017-022>024-029>033-037>039-191200-
NORTHEAST MISSISSIPPI

CITY           SKY/WX    TMP DP  RH WIND       PRES   REMARKS
COLUMBUS AFB   CLEAR     73  73 100 CALM      29.98S
STARKVILLE     CLOUDY    73  73 100 CALM      30.00S FOG
TUPELO         MOCLDY    74  71  91 CALM      29.97S
$$

MSZ040-058-191200-
CENTRAL MISSISSIPPI

CITY           SKY/WX    TMP DP  RH WIND       PRES   REMARKS
JACKSON INTL   CLEAR     76  74  93 CALM      29.99S
JACKSON HAWKNS CLEAR     76  76 100 CALM      29.99S
MADISON        FAIR      73  72  94 CALM      29.98S
MERIDIAN KEY   CLEAR     75  74  96 SW3       29.99F
MERIDIAN NAS   PTCLDY    75  74  96 CALM      29.99S
RAYMOND        FAIR      75  75 100 CALM      29.99R
VICKSBURG VKS  SUNNY     75  75 100 CALM      29.98S FOG
$$

MSZ059>079-191200-
SOUTH MISSISSIPPI

CITY           SKY/WX    TMP DP  RH WIND       PRES   REMARKS
COLUMBIA       FAIR      72 N/A N/A CALM      30.02S
HATTIESBURG    CLEAR     74  74 100 CALM      30.00S
LAUREL         PTSUNNY   74  74 100 CALM      30.00S
MCCOMB         CLEAR     74  72  93 CALM      30.01S
NATCHEZ        CLEAR     77  76  96 CALM      30.00S
PINE BELT      CLEAR     73  73 100 CALM      30.01S FOG
$$

MSZ080>082-191200-
COASTAL MISSISSIPPI

CITY           SKY/WX    TMP DP  RH WIND       PRES   REMARKS
BILOXI         CLEAR     77  75  92 CALM      29.98S
PASCAGOULA     CLEAR     73  71  93 CALM      29.98S
GULFPORT       CLEAR     77  76  96 W3        29.98S
$$

LAZ007>009-015>016-023>026-191200-
NORTHEAST LOUISIANA

CITY           SKY/WX    TMP DP  RH WIND       PRES   REMARKS
BASTROP        FAIR      75  74  98 CALM      29.99S
TALLULAH/VBURG PTCLDY    76  75  97 CALM      29.99R FOG
VIDALIA          N/A    N/A N/A N/A MISG      29.99R
$$



USA.gov is the U.S. government's official web portal to all federal, state and local government web resources and services.